When you browse on this site, cookies collect data to enhance your experience and personalize the content and advertising you see.
Visit our Privacy Policy to learn more. By continuing to use the site, you agree to this use of cookies and data.

Hourly Weather Salta

Today, 14 August, Friday

Time Temperature Precipitation Wind Pressure Humidity
00:00 +8°C° 0 mm 1 mps 646 mmHg 33%
01:00 +8°C° 0 mm 1 mps 645 mmHg 34%
02:00 +8°C° 0 mm 1 mps 644 mmHg 35%
03:00 +8°C° 0 mm 1 mps 644 mmHg 35%
04:00 +8°C° 0 mm 1 mps 644 mmHg 35%
05:00 +7°C° 0 mm 1 mps 643 mmHg 35%
06:00 +9°C° 0 mm 1 mps 644 mmHg 32%
07:00 +10°C° 0 mm 1 mps 644 mmHg 30%
08:00 +12°C° 0 mm 1 mps 645 mmHg 28%
09:00 +16°C° 0 mm 2 mps 646 mmHg 22%
10:00 +20°C° 0 mm 3 mps 647 mmHg 16%
11:00 +25°C° 0 mm 4 mps 648 mmHg 10%
12:00 +27°C° 0 mm 5 mps 648 mmHg 8%
13:00 +30°C° 0 mm 7 mps 648 mmHg 5%
14:00 +33°C° 0 mm 9 mps 649 mmHg 3%
15:00 +32°C° 0 mm 7 mps 649 mmHg 4%
16:00 +29°C° 0 mm 6 mps 649 mmHg 5%
17:00 +28°C° 0 mm 4 mps 649 mmHg 5%
18:00 +24°C° 0 mm 3 mps 649 mmHg 10%
19:00 +19°C° 0 mm 2 mps 648 mmHg 14%
20:00 +14°C° 0 mm 2 mps 648 mmHg 19%
21:00 +14°C° 0 mm 2 mps 648 mmHg 20%
22:00 +13°C° 0 mm 2 mps 649 mmHg 21%
23:00 +12°C° 0 mm 2 mps 649 mmHg 21%

Tomorrow, 15 August, Saturday

Time Temperature Precipitation Wind Pressure Humidity
00:00 +12°C° 0 mm 2 mps 649 mmHg 22%
01:00 +10°C° 0 mm 2 mps 648 mmHg 22%
02:00 +10°C° 0 mm 2 mps 648 mmHg 23%
03:00 +10°C° 0 mm 1 mps 648 mmHg 24%
04:00 +10°C° 0 mm 1 mps 648 mmHg 25%
05:00 +9°C° 0 mm 1 mps 647 mmHg 26%
06:00 +11°C° 0 mm 1 mps 648 mmHg 25%
07:00 +12°C° 0 mm 1 mps 649 mmHg 25%
08:00 +13°C° 0 mm 1 mps 649 mmHg 24%
09:00 +15°C° 0 mm 1 mps 650 mmHg 23%
10:00 +18°C° 0 mm 2 mps 650 mmHg 21%
11:00 +20°C° 0 mm 2 mps 651 mmHg 19%
12:00 +21°C° 0 mm 2 mps 650 mmHg 18%
13:00 +22°C° 0 mm 3 mps 649 mmHg 17%
14:00 +24°C° 0 mm 3 mps 649 mmHg 16%
15:00 +24°C° 0 mm 3 mps 648 mmHg 18%
16:00 +22°C° 0 mm 3 mps 648 mmHg 19%
17:00 +21°C° 0 mm 3 mps 648 mmHg 20%
18:00 +18°C° 0 mm 2 mps 648 mmHg 28%
19:00 +15°C° 0 mm 2 mps 648 mmHg 36%
20:00 +12°C° 0 mm 1 mps 648 mmHg 44%
21:00 +12°C° 0 mm 1 mps 649 mmHg 48%
22:00 +11°C° 0 mm 1 mps 649 mmHg 51%
23:00 +11°C° 0 mm 1 mps 650 mmHg 55%

Day after tomorrow, 16 August, Sunday

Time Temperature Precipitation Wind Pressure Humidity
00:00 +10°C° 0 mm 1 mps 650 mmHg 57%
01:00 +10°C° 0 mm 1 mps 649 mmHg 59%
02:00 +9°C° 0 mm 1 mps 649 mmHg 61%
03:00 +9°C° 0 mm 1 mps 649 mmHg 62%
04:00 +9°C° 0 mm 1 mps 649 mmHg 64%
05:00 +8°C° 0 mm 1 mps 649 mmHg 66%
06:00 +9°C° 0 mm 1 mps 649 mmHg 61%
07:00 +11°C° 0 mm 1 mps 650 mmHg 57%
08:00 +11°C° 0 mm 0 mps 650 mmHg 53%
09:00 +14°C° 0 mm 1 mps 650 mmHg 48%
10:00 +15°C° 0 mm 2 mps 651 mmHg 43%
11:00 +17°C° 0 mm 3 mps 651 mmHg 39%
12:00 +19°C° 0 mm 3 mps 650 mmHg 36%
13:00 +20°C° 0 mm 3 mps 649 mmHg 33%
14:00 +21°C° 0 mm 3 mps 649 mmHg 30%
15:00 +20°C° 0 mm 3 mps 648 mmHg 31%
16:00 +20°C° 0 mm 3 mps 648 mmHg 32%
17:00 +19°C° 0 mm 3 mps 648 mmHg 34%
18:00 +17°C° 0 mm 2 mps 647 mmHg 43%
19:00 +14°C° 0 mm 2 mps 647 mmHg 52%
20:00 +11°C° 0 mm 1 mps 647 mmHg 62%
21:00 +11°C° 0 mm 1 mps 647 mmHg 64%
22:00 +10°C° 0 mm 1 mps 648 mmHg 66%
23:00 +9°C° 0 mm 0 mps 648 mmHg 68%

17 August, Monday

Time Temperature Precipitation Wind Pressure Humidity
00:00 +9°C° 0 mm 1 mps 648 mmHg 68%
01:00 +9°C° 0 mm 1 mps 647 mmHg 68%
02:00 +9°C° 0 mm 1 mps 647 mmHg 68%
03:00 +8°C° 0 mm 1 mps 647 mmHg 68%
04:00 +8°C° 0 mm 1 mps 647 mmHg 67%
05:00 +8°C° 0 mm 1 mps 647 mmHg 67%
06:00 +9°C° 0 mm 1 mps 647 mmHg 62%
07:00 +11°C° 0 mm 1 mps 648 mmHg 57%
08:00 +12°C° 0 mm 1 mps 649 mmHg 51%
09:00 +14°C° 0 mm 1 mps 649 mmHg 46%
10:00 +17°C° 0 mm 2 mps 649 mmHg 41%
11:00 +19°C° 0 mm 2 mps 650 mmHg 36%
12:00 +20°C° 0 mm 3 mps 649 mmHg 32%
13:00 +21°C° 0 mm 4 mps 648 mmHg 28%
14:00 +23°C° 0 mm 4 mps 647 mmHg 24%
15:00 +22°C° 0 mm 4 mps 647 mmHg 25%
16:00 +21°C° 0 mm 4 mps 646 mmHg 25%
17:00 +21°C° 0 mm 4 mps 646 mmHg 25%
18:00 +18°C° 0 mm 3 mps 645 mmHg 32%
19:00 +15°C° 0 mm 2 mps 645 mmHg 40%
20:00 +12°C° 0 mm 1 mps 645 mmHg 47%
21:00 +11°C° 0 mm 1 mps 645 mmHg 47%
22:00 +11°C° 0 mm 1 mps 644 mmHg 47%
23:00 +11°C° 0 mm 1 mps 644 mmHg 47%

18 August, Tuesday

Time Temperature Precipitation Wind Pressure Humidity
00:00 +10°C° 0 mm 1 mps 644 mmHg 45%
01:00 +10°C° 0 mm 1 mps 643 mmHg 44%
02:00 +10°C° 0 mm 1 mps 643 mmHg 43%
03:00 +9°C° 0 mm 2 mps 643 mmHg 40%
04:00 +9°C° 0 mm 2 mps 642 mmHg 36%
05:00 +9°C° 0 mm 2 mps 642 mmHg 33%
06:00 +10°C° 0 mm 2 mps 643 mmHg 28%
07:00 +13°C° 0 mm 2 mps 644 mmHg 24%
08:00 +15°C° 0 mm 2 mps 645 mmHg 19%
09:00 +18°C° 0 mm 2 mps 646 mmHg 14%
10:00 +22°C° 0 mm 3 mps 646 mmHg 9%
11:00 +26°C° 0 mm 3 mps 647 mmHg 3%
12:00 +27°C° 0 mm 4 mps 647 mmHg 3%
13:00 +28°C° 0 mm 5 mps 646 mmHg 3%
14:00 +28°C° 0 mm 6 mps 646 mmHg 2%
15:00 +28°C° 0 mm 6 mps 646 mmHg 3%
16:00 +27°C° 0 mm 5 mps 646 mmHg 3%
17:00 +26°C° 0 mm 5 mps 646 mmHg 4%
18:00 +22°C° 0 mm 4 mps 646 mmHg 7%
19:00 +18°C° 0 mm 4 mps 647 mmHg 11%
20:00 +14°C° 0 mm 3 mps 647 mmHg 14%
21:00 +13°C° 0 mm 3 mps 647 mmHg 22%
22:00 +11°C° 0 mm 3 mps 648 mmHg 31%
23:00 +10°C° 0 mm 3 mps 648 mmHg 39%

19 August, Wednesday

Time Temperature Precipitation Wind Pressure Humidity
00:00 +8°C° 0 mm 2 mps 648 mmHg 45%
01:00 +6°C° 0 mm 2 mps 648 mmHg 50%
02:00 +6°C° 0 mm 1 mps 648 mmHg 56%
03:00 +5°C° 0 mm 1 mps 648 mmHg 58%
04:00 +4°C° 0 mm 1 mps 648 mmHg 61%
05:00 +2°C° 0 mm 2 mps 648 mmHg 63%
06:00 +2°C° 0 mm 2 mps 649 mmHg 59%
07:00 +3°C° 0 mm 2 mps 649 mmHg 54%
08:00 +2°C° 0 mm 3 mps 650 mmHg 49%
09:00 +3°C° 0 mm 3 mps 650 mmHg 45%
10:00 +5°C° 0 mm 3 mps 650 mmHg 41%
11:00 +8°C° 0 mm 3 mps 651 mmHg 37%
12:00 +8°C° 0 mm 3 mps 650 mmHg 34%
13:00 +9°C° 0 mm 3 mps 649 mmHg 32%
14:00 +10°C° 0 mm 4 mps 649 mmHg 30%
15:00 +8°C° 0 mm 4 mps 649 mmHg 29%
16:00 +8°C° 0 mm 4 mps 649 mmHg 29%
17:00 +7°C° 0 mm 5 mps 649 mmHg 28%
18:00 +5°C° 0 mm 4 mps 650 mmHg 33%
19:00 +2°C° 0 mm 3 mps 650 mmHg 37%
20:00 +2°C° 0 mm 1 mps 651 mmHg 41%
21:00 +2°C° 0 mm 1 mps 651 mmHg 42%
22:00 +1°C° 0 mm 1 mps 652 mmHg 42%
23:00 +1°C° 0 mm 1 mps 652 mmHg 43%
Show more